Sigfox identifier Datetime Temperature Humidity SNR
003BC2AB 2018-10-09 09:02:32 21.4 38 20.2
003BC2AB 2018-10-09 07:53:52 21.4 38 18.2
003BC2AB 2018-10-09 06:45:14 21.4 38 18.6
003BC2AB 2018-10-09 05:36:38 21.4 38 18.2
003BC2AB 2018-10-09 02:10:53 21.4 38 18
003BC2AB 2018-10-09 01:02:19 21.4 38 17.9
003BC2AB 2018-10-08 23:53:44 21.4 38 18.4
003BC2AB 2018-10-08 22:45:07 21.4 37 18.2
003BC2AB 2018-10-08 21:36:36 21.4 37 18.2
003BC2AB 2018-10-08 20:28:03 21.4 37 18.1
003BC2AB 2018-10-08 19:19:31 21.4 37 17.9
003BC2AB 2018-10-08 18:10:58 21.4 37 17.9
003BC2AB 2018-10-08 17:02:27 21.2 37 17.6
003BC2AB 2018-10-08 15:53:54 21.2 37 17.6
003BC2AB 2018-10-08 14:45:16 21.1 37 17.8
003BC2AB 2018-10-08 13:36:41 21 36 18.3
003BC2AB 2018-10-08 12:28:05 20.7 36 18.3
003BC2AB 2018-10-08 11:19:29 20.7 35 18.3
003BC2AB 2018-10-08 09:02:21 20.5 33 18.5
003BC2AB 2018-10-08 07:53:44 20.5 35 19
003BC2AB 2018-10-08 06:45:09 20.5 37 19
003BC2AB 2018-10-08 05:36:34 20.5 37 19.4
003BC2AB 2018-10-08 04:28:02 20.5 38 19
003BC2AB 2018-10-08 03:19:30 20.5 38 18.8
003BC2AB 2018-10-08 02:10:57 20.6 38 19.2
003BC2AB 2018-10-08 01:02:26 20.7 39 18.8
003BC2AB 2018-10-07 23:53:52 20.7 39 19
003BC2AB 2018-10-07 22:45:17 20.7 39 18.9
003BC2AB 2018-10-07 21:36:44 20.7 39 18.8
003BC2AB 2018-10-07 20:28:09 20.7 39 19
003BC2AB 2018-10-07 19:19:33 20.7 39 19.3
003BC2AB 2018-10-07 18:10:57 20.7 39 18.9
003BC2AB 2018-10-07 17:02:19 20.7 39 19.3
003BC2AB 2018-10-07 15:53:47 20.7 40 19.2
003BC2AB 2018-10-07 14:45:12 20.7 40 19.5
003BC2AB 2018-10-07 13:36:46 20.7 40 19.6
003BC2AB 2018-10-07 12:28:15 20.7 40 19.5
003BC2AB 2018-10-07 11:19:42 20.7 40 19.5
003BC2AB 2018-10-07 10:11:09 20.7 40 19.5
003BC2AB 2018-10-07 09:02:39 20.7 40 19.4
003BC2AB 2018-10-07 07:54:09 20.7 41 19
003BC2AB 2018-10-07 06:45:40 20.7 41 19
003BC2AB 2018-10-07 05:37:12 20.7 41 19.2
003BC2AB 2018-10-07 04:28:43 20.7 41 19.2
003BC2AB 2018-10-07 03:20:16 20.7 41 19.2
003BC2AB 2018-10-07 02:11:52 20.7 41 19.3
003BC2AB 2018-10-07 01:03:27 20.7 41 18.9
003BC2AB 2018-10-06 23:55:04 20.7 41 19.2
003BC2AB 2018-10-06 22:46:42 20.7 41 19.2
003BC2AB 2018-10-06 21:38:15 20.7 41 18.9
003BC2AB 2018-10-06 20:29:48 20.8 41 18.8
003BC2AB 2018-10-06 19:21:20 20.9 41 18.6
003BC2AB 2018-10-06 18:12:48 20.8 41 18.8
003BC2AB 2018-10-06 17:04:16 20.8 41 18.9
003BC2AB 2018-10-06 15:55:47 20.8 42 18.8
003BC2AB 2018-10-06 14:47:17 20.7 42 18.8
003BC2AB 2018-10-06 13:38:45 20.7 42 18.9
003BC2AB 2018-10-06 12:30:13 20.7 42 18.7
003BC2AB 2018-10-06 11:21:41 20.7 42 18.7
003BC2AB 2018-10-06 10:13:10 20.7 42 18.4
003BC2AB 2018-10-06 09:04:37 20.8 42 18.5
003BC2AB 2018-10-06 07:56:04 20.8 42 18.7
003BC2AB 2018-10-06 06:47:32 20.8 43 18.8
003BC2AB 2018-10-06 05:39:00 20.8 43 18.9
003BC2AB 2018-10-06 04:30:29 21 43 18.8
003BC2AB 2018-10-06 03:21:57 21 43 19
003BC2AB 2018-10-06 02:13:26 21 44 19.2
003BC2AB 2018-10-06 01:04:53 21 44 19.2
003BC2AB 2018-10-05 23:56:21 21.1 44 19.3
003BC2AB 2018-10-05 22:47:52 21.2 45 18.4
003BC2AB 2018-10-05 21:39:22 21.2 45 18.6
003BC2AB 2018-10-05 20:30:54 21.3 45 18.8
003BC2AB 2018-10-05 19:22:27 21.4 46 18.2
003BC2AB 2018-10-05 18:14:01 21.4 46 18.6
003BC2AB 2018-10-05 17:05:28 21.4 47 18.8
003BC2AB 2018-10-05 15:56:56 21.4 47 19.4
003BC2AB 2018-10-05 14:48:23 21.3 46 20.3
003BC2AB 2018-10-05 13:39:48 21.3 44 20.3
003BC2AB 2018-10-05 11:22:36 21.4 41 20.5
003BC2AB 2018-10-05 10:14:01 21.3 41 22
003BC2AB 2018-10-05 09:05:19 21 46 0